Regional Weather Roundup
Issued by NWS

Home | Current Version | Previous Version | Text Only | Print | Product List | Glossary On
Versions: 1 2 3 4 5 6 7 8 9 10 11 12 13 14 15 16 17 18 19 20 21 22 23 24 25 26 27 28 29 30 31 32 33 34 35 36 37 38 39 40 41 42 43 44 45 46 47 48 49 50
000
ASUS43 KMPX 251610
RWRMN
WEATHER ROUNDUP FOR MINNESOTA
NATIONAL WEATHER SERVICE TWIN CITIES/CHANHASSEN MN
1000 AM CST SUN JAN 25 2015


NOTE: "FAIR" INDICATES FEW OR NO CLOUDS BELOW 12,000 FEET WITH NO
SIGNIFICANT WEATHER AND/OR OBSTRUCTIONS TO VISIBILITY. N/A MEANS
CURRENT SKY AND/OR WEATHER CONDITIONS ARE NOT AVAILABLE.

MNZ060>063-068>070-251700-
   Twin Cities Metro

CITY           SKY/WX    TMP DP  RH WIND       PRES   REMARKS
TWIN CITIES    CLOUDY    21  12  68 NE12G21   30.00R WCI   9
ST PAUL        CLOUDY    20  12  71 NE9       30.03R WCI   9
CRYSTAL        CLOUDY    21  11  65 E9        30.00R WCI  11
BLAINE         PTSUNNY   21  12  68 NE12G17   30.00R WCI   9
LAKEVILLE      CLOUDY    19  14  79 NE8       29.98R WCI   9
EDEN PRAIRIE   PTSUNNY   22  13  68 NE10      29.99R WCI  11
SOUTH ST PAUL  PTSUNNY   21  12  68 NE8       30.00R WCI  11
LAKE ELMO      CLOUDY    21  12  68 NE10      30.01R WCI  10
$$
MNZ001>005-007-008-013>017-022>024-027-028-251700-
   Northwest Minnesota

CITY           SKY/WX    TMP DP  RH WIND       PRES   REMARKS
BEMIDJI        CLOUDY    17  10  77 SE6       29.99R WCI   8
HALLOCK        SUNNY     12   5  73 CALM      30.05R
ROSEAU         CLOUDY    10   3  72 E6        30.04R WCI   1
WARROAD        CLOUDY    10   1  67 E6        30.04S WCI   1
THIEF RVR FALL PTSUNNY   10   5  79 E5        30.02R WCI   2
CROOKSTON      SUNNY     16   9  73 CALM      30.05S
FOSSTON        SUNNY     16   9  73 CALM      30.00S
DETROIT LAKES  SUNNY     23  18  80 CALM      30.00R
MOORHEAD       SUNNY     19  16  86 N7        30.04R WCI  10
PARK RAPIDS    CLOUDY    22  14  71 E5        29.98R WCI  16
MAHNOMEN       FAIR      17  13  84 CALM      29.99S
$$
MNZ006-009>011-018-025>026-251700-
   North Central Minnesota

CITY           SKY/WX    TMP DP  RH WIND       PRES   REMARKS
BAUDETTE       CLOUDY     6  -1  73 E6        30.02S WCI  -4
FLAG ISLAND    CLOUDY     7   0  72 SE3       30.04R
INTL FALLS     CLOUDY     4  -4  69 E6        30.05R WCI  -7
WASKISH        CLOUDY    12   5  73 CALM      30.02R
BIG FORK       CLOUDY    14   5  67 CALM      30.02R
LONGVILLE      CLOUDY    21  14  73 SE6       30.00R WCI  14
GRAND RAPIDS   CLOUDY    18  10  73 SE7       30.01R WCI   8
CRANE LAKE     PTSUNNY    3  -4  72 CALM      30.09R
ORR            CLOUDY     9   0  66 CALM      30.02R
COOK           CLOUDY     7   0  72 CALM      30.05R
WALKER         CLOUDY    18  11  74 CALM      29.99S
$$
MNZ012-019>021-037-251700-
   Northeast Minnesota

CITY           SKY/WX    TMP DP  RH WIND       PRES   REMARKS
DULUTH         LGT SNOW  19  13  77 NE10      30.00R WCI   7
ELY            LGT SNOW   1  -2  85 CALM      30.05R
HIBBING        PTSUNNY   16   8  71 E3        30.01R
EVELETH        PTSUNNY   16  10  79 CALM      30.03R
DULUTH HARBOR  FLURRIES  25  18  74 E15       30.06R WCI  12
TWO HARBORS    LGT SNOW  19  14  79 NE7       30.02R WCI  10
SILVER BAY     LGT SNOW  18  12  79 NE7       30.03R WCI   8
GRAND MARAIS     N/A     11   0  61 NE8       30.14R WCI  -1
G MARAIS ARPRT MOSUNNY    3 -11  51 NE3       30.01R
$$
MNZ029>031-032-039>041-046>048-054>057-064-251700-
   West Central Minnesota

CITY           SKY/WX    TMP DP  RH WIND       PRES   REMARKS
FERGUS FALLS   PTSUNNY   23  18  80 N5        30.04R WCI  17
WHEATON        CLOUDY    19  16  86 NW9       30.05R WCI   9
MORRIS         CLOUDY    25  21  86 NW15      30.00R WCI  12
ALEXANDRIA     CLOUDY    26  21  81 E7        29.99R WCI  18
ELBOW LAKE     CLOUDY    22  20  92 N6        30.00R WCI  14
WADENA         CLOUDY    23  18  80 E5        29.99S WCI  17
GLENWOOD       CLOUDY    25  21  86 E9        29.99R WCI  15
APPLETON       CLOUDY    28  25  86 N10       30.01R WCI  19
BENSON         CLOUDY    28  23  80 SE3       30.00R
ORTONVILLE     PTSUNNY   25  19  80 N14       30.01R WCI  13
MADISON        CLOUDY    30  28  93 N10       30.01R WCI  21
WILLMAR        CLOUDY    28  21  74 NE7       30.02R WCI  21
$$
MNZ033>034-036-042>043-049>051-058-059-251700-
   Central Minnesota

CITY           SKY/WX    TMP DP  RH WIND       PRES   REMARKS
ST CLOUD       CLOUDY    21  13  71 VRB6      30.02R WCI  13
SAUK CENTRE    CLOUDY    22  17  80 E8        30.01R WCI  12
PAYNESVILLE    CLOUDY    20  17  86 N7        30.02R WCI  12
AITKIN         MIX PCPN  23  14  68 NE6       30.01R WCI  16
PINE RIVER     CLOUDY    21  14  73 E7        30.04R WCI  13
BRAINERD       MOSUNNY   20  13  74 NE3       30.02R
STAPLES        CLOUDY    21  14  73 NE3       30.00R
LONG PRAIRIE   CLOUDY    21  16  79 NE7       30.01R WCI  13
LITTLE FALLS   CLOUDY    23  14  68 E6        30.04R WCI  16
LITCHFIELD     CLOUDY    25  21  86 N6        30.01R WCI  18
BUFFALO        CLOUDY    21  13  72 NE10G20   30.02R WCI   9
MAPLE LAKE     CLOUDY    23  17  79 NE10      30.02R WCI  12
$$
MNZ037-044-045-052-053-251700-
   East Central Minnesota

CITY           SKY/WX    TMP DP  RH WIND       PRES   REMARKS
PRINCETON      CLOUDY    21  14  73 E6        30.02R WCI  14
MORA           CLOUDY    19  12  73 E6        30.03R WCI  11
CAMBRIDGE      CLOUDY    23  12  63 NE7       30.01R WCI  15
RUSH CITY      CLOUDY    21  14  73 NE8       30.02R WCI  12
MOOSE LAKE     CLOUDY    21  16  79 NE3       30.01R
HINCKLEY       CLOUDY    23  16  74 E8        30.01R WCI  14
CLOQUET        LGT SNOW  19  14  79 E5        30.00R WCI  13
MCGREGOR       CLOUDY    21  16  79 E9        30.02R WCI  11
$$
MNZ071>073-080-081-089-090-097-098-251700-
   Southwest Minnesota

CITY           SKY/WX    TMP DP  RH WIND       PRES   REMARKS
MONTEVIDEO     CLOUDY    30  28  93 E6        30.00R WCI  24
GRANITE FALLS  CLOUDY    30  27  88 CALM      30.01R
CANBY          CLOUDY    28  27  94 CALM      30.01R
MARSHALL       CLOUDY    30  27  86 N8        30.00R WCI  23
REDWOOD FALLS  CLOUDY    30  23  75 NE6       29.99R WCI  24
OLIVIA         PTSUNNY   28  27  93 N9        29.99R WCI  20
PIPESTONE      CLOUDY    30  28  93 NE9       29.94R WCI  22
WINDOM         CLOUDY    27  25  93 N8        29.95R WCI  18
WORTHINGTON    CLOUDY    28  27  93 N13       29.95R WCI  18
JACKSON        CLOUDY    30  27  86 NE14      29.94R WCI  20
TRACY          CLOUDY    30  28  93 NE5       29.96R WCI  25
SLAYTON        CLOUDY    29  27  90 CALM      29.96R
$$
MNZ065>067-074>077-082>085-091>093-251700-
   South Central Minnesota

CITY           SKY/WX    TMP DP  RH WIND       PRES   REMARKS
MANKATO        CLOUDY    25  18  74 N14       29.95R WCI  13
NEW ULM        SUNNY     25  19  80 NE10      29.97R WCI  15
ST JAMES       CLOUDY    28  25  86 N12       29.97R WCI  18
FAIRMONT       CLOUDY    28  23  80 N13       29.94R WCI  18
GLENCOE        MOSUNNY   24  19  82 N8        29.99R WCI  15
FARIBAULT      CLOUDY    23  18  80 N8        29.96R WCI  14
OWATONNA       CLOUDY    25  18  74 N10       29.94R WCI  15
WASECA         CLOUDY    27  21  80 N13       29.95R WCI  16
ALBERT LEA     CLOUDY    28  27  93 N13       29.91R WCI  18
$$
MNZ078>079-086>088-094>096-251700-
   Southeast Minnesota

CITY           SKY/WX    TMP DP  RH WIND       PRES   REMARKS
ROCHESTER      CLOUDY    26  22  84 N12       29.91R WCI  16
RED WING       CLOUDY    23  14  68 NE7       29.98R WCI  15
STANTON        CLOUDY    23  17  77 N14       29.96R WCI  10
DODGE CENTER   CLOUDY    25  21  86 N13       29.91R WCI  13
WINONA         CLOUDY    30  23  74 E5        29.96R WCI  25
AUSTIN         CLOUDY    27  25  93 NE12G20   29.91R WCI  16
PRESTON        CLOUDY    26  24  89 NE9       29.90R WCI  17
$$
ABBREVIATIONS USED IN REMARKS
   TC - TEMPERATURES IN CELSIUS
  WCI - WIND CHILL INDEX
   HX - HEAT INDEX
  VSB - VISIBILITY
$$


USA.gov is the U.S. government's official web portal to all federal, state and local government web resources and services.